Regional Weather Roundup
Issued by NWS

Home | Current Version | Previous Version | Text Only | Print | Product List | Glossary Off
Versions: 1 2 3 4 5 6 7 8 9 10 11 12 13 14 15 16 17 18 19 20 21 22 23 24 25 26 27 28 29 30 31 32 33 34 35 36 37 38 39 40 41 42 43 44 45 46 47 48 49 50

000
ASUS43 KBIS 271602
RWRND

NORTH DAKOTA REGIONAL WEATHER ROUNDUP
NATIONAL WEATHER SERVICE BISMARCK ND
1100 AM CDT SAT AUG 27 2016

NOTE: "FAIR" INDICATES FEW OR NO CLOUDS BELOW 12,000 FEET WITH NO
SIGNIFICANT WEATHER AND/OR OBSTRUCTIONS TO VISIBILITY.


NDZ001>003-009>011-017-271700-
NORTHWEST NORTH DAKOTA

CITY           SKY/WX    TMP DP  RH WIND       PRES   REMARKS
WILLISTON      SUNNY     64  48  56 SE5       29.92S
MINOT          SUNNY     67  51  56 N6        29.91S
MINOT AFB      SUNNY     66  50  57 VRB2      29.90S
$$

NDZ018>021-031>035-040>046-271700-
SOUTHWEST NORTH DAKOTA

CITY           SKY/WX    TMP DP  RH WIND       PRES   REMARKS
BISMARCK       MOSUNNY   65  54  67 CALM      29.94S
DICKINSON      SUNNY     65  50  58 SW9       29.93S
GARRISON         N/A     67  51  56 SW8       29.92F
HETTINGER ARPT SUNNY     67  51  56 S6        29.97S
$$

NDZ004>008-012>016-024-026-027-054-271700-
NORTHEAST NORTH DAKOTA

CITY           SKY/WX    TMP DP  RH WIND       PRES   REMARKS
GRAND FORKS    LGT RAIN  60  58  92 SE9       29.94F
GRND FRKS AFB  CLOUDY    60  58  94 S9        29.94F
$$

NDZ022-023-025-028>030-036>039-047>053-271700-
SOUTHEAST NORTH DAKOTA

CITY           SKY/WX    TMP DP  RH WIND       PRES   REMARKS
FARGO          CLOUDY    67  61  81 S12       29.96S
JAMESTOWN      SUNNY     67  59  75 S3        29.94S
$$




USA.gov is the U.S. government's official web portal to all federal, state and local government web resources and services.